Powrót do katalogu

COSMOS 397 DEB

AktywnyLEO
NORAD 5017·DEBRIS·🇷🇺 Russia

Wystrzelony Feb 25, 1971 z Baikonur Cosmodrome

Loading…

Następne Przeloty (najbliższe 24 godziny)

TLE

ŚwieżeSource: Space-Track

Epoka: Sep 14, 2026, 08:31 UTC

1 05017U 71015L   26257.35509499  .00001283  00000-0  46351-3 0  9999
2 05017  65.7068 230.6710 0699039  89.6760 278.4304 13.48978690651597

Śledź COSMOS 397 DEB w czasie rzeczywistym z AllMySat

Download on the App Store